TimeCST,TemperatureF,Dew PointF,Humidity,Sea Level PressureIn,VisibilityMPH,Wind Direction,Wind SpeedMPH,Gust SpeedMPH,PrecipitationIn,Events,Conditions,WindDirDegrees,DateUTC
12:58 AM,39.4,34.3,82,30.07,10.0,WNW,3.5,-,N/A,,Clear,290,2013-02-14 06:58:00
1:58 AM,38.1,33.3,83,30.06,10.0,NW,2.3,-,N/A,,Clear,310,2013-02-14 07:58:00
2:58 AM,37.8,33.4,84,30.06,10.0,NW,3.5,-,N/A,,Clear,310,2013-02-14 08:58:00
3:58 AM,36.0,32.2,86,30.07,5.0,West,1.2,-,N/A,,Clear,260,2013-02-14 09:58:00
4:08 AM,35.6,32.0,87,30.07,2.5,SSW,2.3,-,N/A,,Clear,210,2013-02-14 10:08:00
4:13 AM,35.6,32.0,87,30.08,1.5,SW,2.3,-,N/A,,Clear,230,2013-02-14 10:13:00
4:23 AM,35.6,32.0,87,30.07,3.0,Calm,Calm,-,N/A,,Clear,0,2013-02-14 10:23:00
4:33 AM,35.6,32.0,87,30.08,1.8,SW,1.2,-,N/A,,Clear,230,2013-02-14 10:33:00
4:38 AM,35.6,32.0,87,30.09,2.5,SW,2.3,-,N/A,,Clear,230,2013-02-14 10:38:00
4:43 AM,35.6,32.0,87,30.09,5.0,WSW,2.3,-,N/A,,Clear,250,2013-02-14 10:43:00
4:58 AM,34.9,31.3,87,30.09,4.0,West,2.3,-,N/A,,Clear,280,2013-02-14 10:58:00
5:58 AM,36.1,32.4,86,30.10,6.0,NW,4.6,-,N/A,,Clear,320,2013-02-14 11:58:00
6:58 AM,36.9,33.1,86,30.10,9.0,WNW,3.5,-,N/A,,Clear,300,2013-02-14 12:58:00
7:58 AM,37.9,33.8,85,30.14,8.0,SSW,1.2,-,N/A,,Clear,210,2013-02-14 13:58:00
8:58 AM,41.4,35.1,78,30.16,10.0,SE,3.5,-,N/A,,Clear,140,2013-02-14 14:58:00
9:58 AM,45.0,33.4,64,30.15,10.0,Variable,2.3,-,N/A,,Clear,0,2013-02-14 15:58:00
10:58 AM,47.3,32.5,57,30.16,10.0,SE,4.6,-,N/A,,Clear,130,2013-02-14 16:58:00
11:58 AM,49.3,32.9,53,30.14,10.0,Variable,3.5,-,N/A,,Clear,0,2013-02-14 17:58:00
12:58 PM,52.2,34.3,51,30.11,10.0,SW,3.5,-,N/A,,Clear,220,2013-02-14 18:58:00
1:58 PM,52.9,33.4,48,30.07,10.0,Variable,2.3,-,N/A,,Clear,0,2013-02-14 19:58:00
2:58 PM,55.2,34.2,45,30.06,10.0,East,2.3,-,N/A,,Clear,80,2013-02-14 20:58:00
3:58 PM,56.5,34.5,44,30.06,10.0,South,3.5,-,N/A,,Clear,190,2013-02-14 21:58:00
4:58 PM,55.4,35.4,47,30.06,10.0,SSE,4.6,-,N/A,,Clear,150,2013-02-14 22:58:00
5:58 PM,51.4,37.9,60,30.07,10.0,SW,2.3,-,N/A,,Clear,220,2013-02-14 23:58:00
6:58 PM,47.7,37.6,68,30.08,10.0,SW,2.3,-,N/A,,Clear,220,2013-02-15 00:58:00
7:58 PM,43.5,37.2,78,30.10,10.0,Calm,Calm,-,N/A,,Clear,360,2013-02-15 01:58:00
8:58 PM,43.9,37.9,80,30.11,10.0,WSW,4.6,-,N/A,,Clear,240,2013-02-15 02:58:00
9:58 PM,41.9,37.0,83,30.11,10.0,Calm,Calm,-,N/A,,Clear,0,2013-02-15 03:58:00
10:53 PM,41.0,35.6,81,30.10,2.0,Calm,Calm,-,N/A,,Haze,0,2013-02-15 04:53:00
10:58 PM,40.6,36.7,86,30.11,2.5,Calm,Calm,-,N/A,,Clear,0,2013-02-15 04:58:00
11:03 PM,39.2,35.6,87,30.10,5.0,Calm,Calm,-,N/A,,Haze,0,2013-02-15 05:03:00
11:28 PM,39.2,35.6,87,30.09,2.0,Calm,Calm,-,N/A,,Clear,0,2013-02-15 05:28:00
11:33 PM,39.2,35.6,87,30.09,1.0,Calm,Calm,-,N/A,,Haze,0,2013-02-15 05:33:00
11:38 PM,39.2,35.6,87,30.09,0.8,Calm,Calm,-,N/A,,Clear,0,2013-02-15 05:38:00
11:43 PM,39.2,35.6,87,30.09,0.8,Calm,Calm,-,N/A,,Clear,0,2013-02-15 05:43:00
11:48 PM,39.2,35.6,87,30.09,1.2,Calm,Calm,-,N/A,,Clear,0,2013-02-15 05:48:00
11:53 PM,39.2,33.8,81,30.09,1.0,SSE,1.2,-,N/A,,Clear,160,2013-02-15 05:53:00
11:58 PM,38.3,34.5,86,30.10,1.0,Calm,Calm,-,N/A,,Clear,0,2013-02-15 05:58:00